Time,TemperatureF,DewpointF,PressureIn,WindDirection,WindDirectionDegrees,WindSpeedMPH,WindSpeedGustMPH,Humidity,HourlyPrecipIn,Conditions,Clouds,dailyrainin,SoftwareType,DateUTC
2013-02-14 00:00:00,34.6,6.3,30.05,SSW,203,1.8,3.4,30,0.00,,,0.00,WUHU216HW,2013-02-14 07:00:00,
2013-02-14 00:05:00,34.4,6.2,30.05,WSW,248,1.3,2.9,30,0.00,,,0.00,WUHU216HW,2013-02-14 07:05:00,
2013-02-14 00:10:00,34.4,6.2,30.05,SW,225,0.9,1.8,30,0.00,,,0.00,WUHU216HW,2013-02-14 07:10:00,
2013-02-14 00:15:00,34.2,6.0,30.05,SW,225,3.6,3.6,30,0.00,,,0.00,WUHU216HW,2013-02-14 07:15:00,
2013-02-14 00:20:00,34.0,6.0,30.05,SW,225,0.4,3.6,30,0.00,,,0.00,WUHU216HW,2013-02-14 07:20:00,
2013-02-14 00:25:00,34.0,6.0,30.05,SSW,203,1.1,2.0,30,0.00,,,0.00,WUHU216HW,2013-02-14 07:25:00,
2013-02-14 00:30:00,34.0,6.0,30.05,SSW,203,1.6,2.5,30,0.00,,,0.00,WUHU216HW,2013-02-14 07:30:00,
2013-02-14 00:35:00,33.8,5.8,30.05,SSW,203,0.2,2.5,30,0.00,,,0.00,WUHU216HW,2013-02-14 07:35:00,
2013-02-14 00:40:00,33.7,5.6,30.05,SW,225,0.4,1.8,30,0.00,,,0.00,WUHU216HW,2013-02-14 07:40:00,
2013-02-14 00:45:00,33.7,5.6,30.05,SSW,203,0.0,1.8,30,0.00,,,0.00,WUHU216HW,2013-02-14 07:45:00,
2013-02-14 00:50:00,33.5,6.0,30.05,SSW,203,0.0,1.8,31,0.00,,,0.00,WUHU216HW,2013-02-14 07:50:00,
2013-02-14 00:55:00,33.5,6.0,30.05,SW,225,0.4,0.7,31,0.00,,,0.00,WUHU216HW,2013-02-14 07:55:00,
2013-02-14 01:00:00,33.3,6.0,30.05,SW,225,0.4,0.7,31,0.00,,,0.00,WUHU216HW,2013-02-14 08:00:00,
2013-02-14 01:05:00,32.9,5.6,30.04,SSE,158,0.7,2.0,31,0.00,,,0.00,WUHU216HW,2013-02-14 08:05:00,
2013-02-14 01:10:00,32.6,5.2,30.04,SSE,158,0.2,2.0,31,0.00,,,0.00,WUHU216HW,2013-02-14 08:10:00,
2013-02-14 01:15:00,32.4,5.1,30.04,SSE,158,0.0,1.1,31,0.00,,,0.00,WUHU216HW,2013-02-14 08:15:00,
2013-02-14 01:20:00,32.0,5.4,30.05,SSE,158,0.0,0.2,32,0.00,,,0.00,WUHU216HW,2013-02-14 08:20:00,
2013-02-14 01:25:00,32.0,5.4,30.05,SSE,158,0.0,0.4,32,0.00,,,0.00,WUHU216HW,2013-02-14 08:25:00,
2013-02-14 01:30:00,31.9,5.2,30.05,SSE,158,0.0,0.4,32,0.00,,,0.00,WUHU216HW,2013-02-14 08:30:00,
2013-02-14 01:35:00,31.7,5.0,30.05,SSE,158,0.7,1.1,32,0.00,,,0.00,WUHU216HW,2013-02-14 08:35:00,
2013-02-14 01:40:00,31.5,5.0,30.05,SSE,158,0.0,1.1,32,0.00,,,0.00,WUHU216HW,2013-02-14 08:40:00,
2013-02-14 01:45:00,31.3,5.4,30.05,SSE,158,0.0,0.7,33,0.00,,,0.00,WUHU216HW,2013-02-14 08:45:00,
2013-02-14 01:50:00,31.3,5.4,30.05,SSW,203,0.7,1.3,33,0.00,,,0.00,WUHU216HW,2013-02-14 08:50:00,
2013-02-14 01:55:00,31.0,5.0,30.05,SSW,203,0.4,1.3,33,0.00,,,0.00,WUHU216HW,2013-02-14 08:55:00,
2013-02-14 02:00:00,30.8,4.9,30.05,South,180,2.2,2.2,33,0.00,,,0.00,WUHU216HW,2013-02-14 09:00:00,
2013-02-14 02:05:00,30.8,4.9,30.05,South,180,2.7,4.5,33,0.00,,,0.00,WUHU216HW,2013-02-14 09:05:00,
2013-02-14 02:10:00,31.0,5.7,30.04,SSW,203,2.0,4.5,34,0.00,,,0.00,WUHU216HW,2013-02-14 09:10:00,
2013-02-14 02:15:00,30.8,5.5,30.04,SSW,203,2.2,3.6,34,0.00,,,0.00,WUHU216HW,2013-02-14 09:15:00,
2013-02-14 02:20:00,30.8,5.5,30.04,SSW,203,1.8,3.6,34,0.00,,,0.00,WUHU216HW,2013-02-14 09:20:00,
2013-02-14 02:25:00,30.8,5.5,30.04,SW,225,2.0,3.6,34,0.00,,,0.00,WUHU216HW,2013-02-14 09:25:00,
2013-02-14 02:30:00,30.6,5.4,30.04,SW,225,1.8,2.0,34,0.00,,,0.00,WUHU216HW,2013-02-14 09:30:00,
2013-02-14 02:35:00,30.8,5.5,30.04,SW,225,1.6,2.0,34,0.00,,,0.00,WUHU216HW,2013-02-14 09:35:00,
2013-02-14 02:40:00,30.6,5.4,30.04,SW,225,0.7,1.8,34,0.00,,,0.00,WUHU216HW,2013-02-14 09:40:00,
2013-02-14 02:45:00,30.4,5.2,30.04,WSW,248,2.0,2.0,34,0.00,,,0.00,WUHU216HW,2013-02-14 09:45:00,
2013-02-14 02:50:00,30.6,6.0,30.04,SW,225,0.4,3.4,35,0.00,,,0.00,WUHU216HW,2013-02-14 09:50:00,
2013-02-14 02:55:00,30.2,5.7,30.04,SW,225,0.0,3.4,35,0.00,,,0.00,WUHU216HW,2013-02-14 09:55:00,
2013-02-14 03:00:00,30.1,5.5,30.04,SW,225,0.0,0.4,35,0.00,,,0.00,WUHU216HW,2013-02-14 10:00:00,
2013-02-14 03:05:00,29.7,5.2,30.04,SW,225,0.0,1.1,35,0.00,,,0.00,WUHU216HW,2013-02-14 10:05:00,
2013-02-14 03:10:00,29.3,4.9,30.04,SW,225,0.0,1.1,35,0.00,,,0.00,WUHU216HW,2013-02-14 10:10:00,
2013-02-14 03:15:00,29.2,4.7,30.04,WSW,248,0.4,0.9,35,0.00,,,0.00,WUHU216HW,2013-02-14 10:15:00,
2013-02-14 03:20:00,29.0,5.1,30.04,SW,225,0.4,1.1,36,0.00,,,0.00,WUHU216HW,2013-02-14 10:20:00,
2013-02-14 03:25:00,28.8,5.1,30.04,SW,225,0.4,1.1,36,0.00,,,0.00,WUHU216HW,2013-02-14 10:25:00,
2013-02-14 03:30:00,28.8,5.1,30.04,SW,225,0.7,1.1,36,0.00,,,0.00,WUHU216HW,2013-02-14 10:30:00,
2013-02-14 03:35:00,28.6,4.9,30.04,WSW,248,0.9,1.3,36,0.00,,,0.00,WUHU216HW,2013-02-14 10:35:00,
2013-02-14 03:40:00,28.4,4.7,30.04,WSW,248,0.2,1.3,36,0.00,,,0.00,WUHU216HW,2013-02-14 10:40:00,
2013-02-14 03:45:00,28.4,4.7,30.04,WSW,248,0.4,0.9,36,0.00,,,0.00,WUHU216HW,2013-02-14 10:45:00,
2013-02-14 03:50:00,28.3,4.5,30.04,SW,225,1.3,1.3,36,0.00,,,0.00,WUHU216HW,2013-02-14 10:50:00,
2013-02-14 03:55:00,28.1,5.0,30.04,SW,225,0.4,1.6,37,0.00,,,0.00,WUHU216HW,2013-02-14 10:55:00,
2013-02-14 04:00:00,27.9,4.9,30.04,SW,225,0.2,1.6,37,0.00,,,0.00,WUHU216HW,2013-02-14 11:00:00,
2013-02-14 04:05:00,27.7,4.7,30.04,SW,225,0.0,0.4,37,0.00,,,0.00,WUHU216HW,2013-02-14 11:05:00,
2013-02-14 04:10:00,27.5,4.5,30.04,SW,225,0.2,0.2,37,0.00,,,0.00,WUHU216HW,2013-02-14 11:10:00,
2013-02-14 04:15:00,27.4,4.3,30.05,SW,225,0.0,0.2,37,0.00,,,0.00,WUHU216HW,2013-02-14 11:15:00,
2013-02-14 04:20:00,27.0,4.1,30.05,SW,225,0.0,0.2,37,0.00,,,0.00,WUHU216HW,2013-02-14 11:20:00,
2013-02-14 04:25:00,27.0,4.1,30.05,SW,225,0.0,0.2,37,0.00,,,0.00,WUHU216HW,2013-02-14 11:25:00,
2013-02-14 04:30:00,26.8,3.3,30.05,WSW,248,0.9,1.1,36,0.00,,,0.00,WUHU216HW,2013-02-14 11:30:00,
2013-02-14 04:35:00,26.5,3.5,30.05,SW,225,0.4,2.0,37,0.00,,,0.00,WUHU216HW,2013-02-14 11:35:00,
2013-02-14 04:40:00,26.3,3.4,30.05,WSW,248,0.9,2.0,37,0.00,,,0.00,WUHU216HW,2013-02-14 11:40:00,
2013-02-14 04:45:00,26.3,3.4,30.05,SW,225,2.2,2.2,37,0.00,,,0.00,WUHU216HW,2013-02-14 11:45:00,
2013-02-14 04:50:00,26.3,4.0,30.05,SW,225,1.6,2.5,38,0.00,,,0.00,WUHU216HW,2013-02-14 11:50:00,
2013-02-14 04:55:00,26.3,4.0,30.05,SSW,203,1.1,2.5,38,0.00,,,0.00,WUHU216HW,2013-02-14 11:55:00,
2013-02-14 05:00:00,26.3,4.0,30.05,SSW,203,0.4,2.0,38,0.00,,,0.00,WUHU216HW,2013-02-14 12:00:00,
2013-02-14 05:05:00,26.3,4.0,30.05,SW,225,0.9,2.0,38,0.00,,,0.00,WUHU216HW,2013-02-14 12:05:00,
2013-02-14 05:10:00,26.3,4.0,30.06,WSW,248,0.4,1.1,38,0.00,,,0.00,WUHU216HW,2013-02-14 12:10:00,
2013-02-14 05:15:00,26.1,3.9,30.06,SW,225,0.4,1.1,38,0.00,,,0.00,WUHU216HW,2013-02-14 12:15:00,
2013-02-14 05:20:00,25.9,3.7,30.06,SSW,203,1.1,1.1,38,0.00,,,0.00,WUHU216HW,2013-02-14 12:20:00,
2013-02-14 05:25:00,25.9,3.7,30.06,SE,135,0.0,1.3,38,0.00,,,0.00,WUHU216HW,2013-02-14 12:25:00,
2013-02-14 05:30:00,25.7,3.5,30.06,WSW,248,0.4,1.3,38,0.00,,,0.00,WUHU216HW,2013-02-14 12:30:00,
2013-02-14 05:35:00,25.7,3.5,30.06,SW,225,0.9,1.8,38,0.00,,,0.00,WUHU216HW,2013-02-14 12:35:00,
2013-02-14 05:40:00,25.9,4.3,30.07,South,180,0.0,1.8,39,0.00,,,0.00,WUHU216HW,2013-02-14 12:40:00,
2013-02-14 05:45:00,25.9,4.3,30.07,West,270,0.2,1.8,39,0.00,,,0.00,WUHU216HW,2013-02-14 12:45:00,
2013-02-14 05:50:00,25.7,4.1,30.07,SW,225,0.2,0.4,39,0.00,,,0.00,WUHU216HW,2013-02-14 12:50:00,
2013-02-14 05:55:00,25.6,4.0,30.08,SW,225,0.0,0.7,39,0.00,,,0.00,WUHU216HW,2013-02-14 12:55:00,
2013-02-14 06:00:00,25.4,3.9,30.07,SW,225,0.0,0.7,39,0.00,,,0.00,WUHU216HW,2013-02-14 13:00:00,
2013-02-14 06:05:00,25.2,3.7,30.08,WSW,248,0.0,0.2,39,0.00,,,0.00,WUHU216HW,2013-02-14 13:05:00,
2013-02-14 06:10:00,25.0,3.5,30.08,SW,225,0.7,1.1,39,0.00,,,0.00,WUHU216HW,2013-02-14 13:10:00,
2013-02-14 06:15:00,24.8,3.3,30.08,SW,225,0.9,1.1,39,0.00,,,0.00,WUHU216HW,2013-02-14 13:15:00,
2013-02-14 06:20:00,24.8,3.3,30.08,SW,225,0.7,2.2,39,0.00,,,0.00,WUHU216HW,2013-02-14 13:20:00,
2013-02-14 06:25:00,24.8,3.3,30.08,WSW,248,0.9,2.2,39,0.00,,,0.00,WUHU216HW,2013-02-14 13:25:00,
2013-02-14 06:30:00,24.8,3.3,30.08,SW,225,0.7,1.3,39,0.00,,,0.00,WUHU216HW,2013-02-14 13:30:00,
2013-02-14 06:35:00,24.8,4.0,30.08,SW,225,0.4,1.6,40,0.00,,,0.00,WUHU216HW,2013-02-14 13:35:00,
2013-02-14 06:40:00,24.8,4.0,30.08,SW,225,0.0,1.6,40,0.00,,,0.00,WUHU216HW,2013-02-14 13:40:00,
2013-02-14 06:45:00,24.8,4.4,30.09,SW,225,0.0,0.7,41,0.00,,,0.00,WUHU216HW,2013-02-14 13:45:00,
2013-02-14 06:50:00,24.8,4.4,30.09,SW,225,0.2,0.4,41,0.00,,,0.00,WUHU216HW,2013-02-14 13:50:00,
2013-02-14 06:55:00,24.8,4.4,30.10,SW,225,0.0,0.2,41,0.00,,,0.00,WUHU216HW,2013-02-14 13:55:00,
2013-02-14 07:00:00,24.7,4.3,30.10,SW,225,0.2,0.2,41,0.00,,,0.00,WUHU216HW,2013-02-14 14:00:00,
2013-02-14 07:05:00,24.8,4.4,30.10,SSE,158,0.0,0.4,41,0.00,,,0.00,WUHU216HW,2013-02-14 14:05:00,
2013-02-14 07:10:00,25.0,4.6,30.09,South,180,0.0,0.4,41,0.00,,,0.00,WUHU216HW,2013-02-14 14:10:00,
2013-02-14 07:15:00,25.7,5.8,30.10,SSW,203,0.0,0.4,42,0.00,,,0.00,WUHU216HW,2013-02-14 14:15:00,
2013-02-14 07:20:00,26.6,6.6,30.10,SW,225,0.4,1.1,42,0.00,,,0.00,WUHU216HW,2013-02-14 14:20:00,
2013-02-14 07:25:00,27.9,7.2,30.10,SW,225,0.9,1.1,41,0.00,,,0.00,WUHU216HW,2013-02-14 14:25:00,
2013-02-14 07:30:00,28.8,8.0,30.10,SW,225,0.0,1.1,41,0.00,,,0.00,WUHU216HW,2013-02-14 14:30:00,
2013-02-14 07:35:00,29.2,7.8,30.10,North,0,0.9,0.9,40,0.00,,,0.00,WUHU216HW,2013-02-14 14:35:00,
2013-02-14 07:40:00,28.8,6.9,30.10,North,0,0.2,1.1,39,0.00,,,0.00,WUHU216HW,2013-02-14 14:40:00,
2013-02-14 07:45:00,29.0,7.0,30.10,North,0,0.4,1.1,39,0.00,,,0.00,WUHU216HW,2013-02-14 14:45:00,
2013-02-14 07:50:00,29.2,7.2,30.10,North,0,0.0,0.4,39,0.00,,,0.00,WUHU216HW,2013-02-14 14:50:00,
2013-02-14 07:55:00,29.3,7.4,30.10,North,0,0.4,0.4,39,0.00,,,0.00,WUHU216HW,2013-02-14 14:55:00,
2013-02-14 08:00:00,29.9,7.8,30.11,North,0,0.4,1.1,39,0.00,,,0.00,WUHU216HW,2013-02-14 15:00:00,
2013-02-14 08:05:00,30.2,8.2,30.11,North,0,0.7,1.1,39,0.00,,,0.00,WUHU216HW,2013-02-14 15:05:00,
2013-02-14 08:10:00,30.8,8.6,30.11,NNE,23,0.0,1.1,39,0.00,,,0.00,WUHU216HW,2013-02-14 15:10:00,
2013-02-14 08:15:00,31.3,8.6,30.11,NNE,23,0.4,0.9,38,0.00,,,0.00,WUHU216HW,2013-02-14 15:15:00,
2013-02-14 08:20:00,32.0,9.8,30.11,WSW,248,0.9,0.9,39,0.00,,,0.00,WUHU216HW,2013-02-14 15:20:00,
2013-02-14 08:25:00,32.4,9.6,30.11,WSW,248,0.4,0.9,38,0.00,,,0.00,WUHU216HW,2013-02-14 15:25:00,
2013-02-14 08:30:00,32.9,10.0,30.11,West,270,0.2,1.6,38,0.00,,,0.00,WUHU216HW,2013-02-14 15:30:00,
2013-02-14 08:35:00,33.5,10.4,30.11,North,0,0.4,1.6,38,0.00,,,0.00,WUHU216HW,2013-02-14 15:35:00,
2013-02-14 08:40:00,33.8,10.2,30.11,NE,45,1.1,2.0,37,0.00,,,0.00,WUHU216HW,2013-02-14 15:40:00,
2013-02-14 08:45:00,34.2,10.4,30.11,North,0,1.8,2.2,37,0.00,,,0.00,WUHU216HW,2013-02-14 15:45:00,
2013-02-14 08:50:00,34.7,11.0,30.11,WNW,293,1.1,2.2,37,0.00,,,0.00,WUHU216HW,2013-02-14 15:50:00,
2013-02-14 08:55:00,34.7,11.0,30.10,North,0,1.3,2.0,37,0.00,,,0.00,WUHU216HW,2013-02-14 15:55:00,
2013-02-14 09:00:00,35.3,11.4,30.10,North,0,0.9,1.8,37,0.00,,,0.00,WUHU216HW,2013-02-14 16:00:00,
2013-02-14 09:05:00,36.0,11.4,30.10,NW,315,1.8,2.0,36,0.00,,,0.00,WUHU216HW,2013-02-14 16:05:00,
2013-02-14 09:10:00,36.4,11.7,30.10,NNW,338,0.7,2.2,36,0.00,,,0.00,WUHU216HW,2013-02-14 16:10:00,
2013-02-14 09:15:00,37.1,12.4,30.10,WNW,293,1.1,2.7,36,0.00,,,0.00,WUHU216HW,2013-02-14 16:15:00,
2013-02-14 09:20:00,37.8,13.1,30.10,NW,315,1.3,2.7,36,0.00,,,0.00,WUHU216HW,2013-02-14 16:20:00,
2013-02-14 09:25:00,38.3,13.5,30.10,NNW,338,1.8,3.1,36,0.00,,,0.00,WUHU216HW,2013-02-14 16:25:00,
2013-02-14 09:30:00,38.9,13.3,30.10,NW,315,0.9,3.1,35,0.00,,,0.00,WUHU216HW,2013-02-14 16:30:00,
2013-02-14 09:35:00,39.4,14.5,30.10,North,0,2.0,2.9,36,0.00,,,0.00,WUHU216HW,2013-02-14 16:35:00,
2013-02-14 09:40:00,40.0,14.3,30.10,NNW,338,2.5,3.6,35,0.00,,,0.00,WUHU216HW,2013-02-14 16:40:00,
2013-02-14 09:45:00,40.3,14.7,30.10,NW,315,1.8,3.6,35,0.00,,,0.00,WUHU216HW,2013-02-14 16:45:00,
2013-02-14 09:50:00,41.0,15.3,30.10,NW,315,2.0,5.6,35,0.00,,,0.00,WUHU216HW,2013-02-14 16:50:00,
2013-02-14 09:55:00,41.4,15.6,30.09,NW,315,1.6,5.6,35,0.00,,,0.00,WUHU216HW,2013-02-14 16:55:00,
2013-02-14 10:00:00,41.8,15.9,30.09,West,270,3.1,4.0,35,0.00,,,0.00,WUHU216HW,2013-02-14 17:00:00,
2013-02-14 10:05:00,42.3,16.4,30.09,NNW,338,1.1,3.1,35,0.00,,,0.00,WUHU216HW,2013-02-14 17:05:00,
2013-02-14 10:10:00,42.8,15.5,30.09,WNW,293,0.7,3.1,33,0.00,,,0.00,WUHU216HW,2013-02-14 17:10:00,
2013-02-14 10:16:00,43.6,16.1,30.09,WNW,293,0.7,3.1,33,0.00,,,0.00,WUHU216HW,2013-02-14 17:16:00,
2013-02-14 10:21:00,43.9,17.1,30.09,NNE,23,2.5,3.1,34,0.00,,,0.00,WUHU216HW,2013-02-14 17:21:00,
2013-02-14 10:26:00,44.6,17.1,30.09,WNW,293,2.5,3.4,33,0.00,,,0.00,WUHU216HW,2013-02-14 17:26:00,
2013-02-14 10:31:00,45.2,17.7,30.09,North,0,3.1,3.4,33,0.00,,,0.00,WUHU216HW,2013-02-14 17:31:00,
2013-02-14 10:36:00,45.7,17.5,30.09,West,270,0.9,4.0,32,0.00,,,0.00,WUHU216HW,2013-02-14 17:36:00,
2013-02-14 10:41:00,46.3,17.9,30.09,North,0,2.7,5.1,32,0.00,,,0.00,WUHU216HW,2013-02-14 17:41:00,
2013-02-14 10:46:00,47.0,18.5,30.09,NW,315,1.3,5.1,32,0.00,,,0.00,WUHU216HW,2013-02-14 17:46:00,
2013-02-14 10:51:00,47.3,18.2,30.08,North,0,1.6,4.5,31,0.00,,,0.00,WUHU216HW,2013-02-14 17:51:00,
2013-02-14 10:56:00,48.1,18.2,30.08,North,0,3.6,4.5,30,0.00,,,0.00,WUHU216HW,2013-02-14 17:56:00,
2013-02-14 11:01:00,48.2,18.4,30.08,SW,225,1.1,4.0,30,0.00,,,0.00,WUHU216HW,2013-02-14 18:01:00,
2013-02-14 11:06:00,48.8,18.8,30.08,NNE,23,5.4,5.4,30,0.00,,,0.00,WUHU216HW,2013-02-14 18:06:00,
2013-02-14 11:11:00,49.3,18.3,30.08,North,0,3.4,5.4,29,0.00,,,0.00,WUHU216HW,2013-02-14 18:11:00,
2013-02-14 11:16:00,49.5,18.5,30.07,NNW,338,2.7,5.1,29,0.00,,,0.00,WUHU216HW,2013-02-14 18:16:00,
2013-02-14 11:21:00,50.0,18.9,30.07,NE,45,3.4,3.8,29,0.00,,,0.00,WUHU216HW,2013-02-14 18:21:00,
2013-02-14 11:26:00,50.4,19.2,30.06,NNE,23,0.9,3.8,29,0.00,,,0.00,WUHU216HW,2013-02-14 18:26:00,
2013-02-14 11:31:00,50.9,18.7,30.06,NNE,23,0.7,3.4,28,0.00,,,0.00,WUHU216HW,2013-02-14 18:31:00,
2013-02-14 11:36:00,51.5,20.2,30.06,SSE,158,2.5,4.3,29,0.00,,,0.00,WUHU216HW,2013-02-14 18:36:00,
2013-02-14 11:41:00,52.2,19.9,30.05,SE,135,4.7,4.7,28,0.00,,,0.00,WUHU216HW,2013-02-14 18:41:00,
2013-02-14 11:46:00,52.9,20.5,30.05,SE,135,1.1,4.7,28,0.00,,,0.00,WUHU216HW,2013-02-14 18:46:00,
2013-02-14 11:51:00,53.5,21.0,30.05,South,180,4.7,4.7,28,0.00,,,0.00,WUHU216HW,2013-02-14 18:51:00,
2013-02-14 11:56:00,54.2,20.6,30.05,SSE,158,3.1,4.7,27,0.00,,,0.00,WUHU216HW,2013-02-14 18:56:00,
2013-02-14 12:01:00,54.7,21.1,30.05,SSE,158,3.4,6.5,27,0.00,,,0.00,WUHU216HW,2013-02-14 19:01:00,
2013-02-14 12:06:00,55.1,21.3,30.05,SSW,203,3.6,6.5,27,0.00,,,0.00,WUHU216HW,2013-02-14 19:06:00,
2013-02-14 12:11:00,55.1,21.3,30.05,SW,225,0.9,5.1,27,0.00,,,0.00,WUHU216HW,2013-02-14 19:11:00,
2013-02-14 12:16:00,55.4,19.8,30.04,WSW,248,4.9,9.4,25,0.00,,,0.00,WUHU216HW,2013-02-14 19:16:00,
2013-02-14 12:21:00,55.3,19.6,30.04,WSW,248,4.0,9.4,25,0.00,,,0.00,WUHU216HW,2013-02-14 19:21:00,
2013-02-14 12:26:00,55.6,20.0,30.04,South,180,3.6,6.5,25,0.00,,,0.00,WUHU216HW,2013-02-14 19:26:00,
2013-02-14 12:31:00,56.3,20.5,30.04,West,270,2.5,7.4,25,0.00,,,0.00,WUHU216HW,2013-02-14 19:31:00,
2013-02-14 12:36:00,56.2,20.4,30.04,SW,225,4.7,7.4,25,0.00,,,0.00,WUHU216HW,2013-02-14 19:36:00,
2013-02-14 12:41:00,56.3,20.5,30.04,WNW,293,3.1,4.7,25,0.00,,,0.00,WUHU216HW,2013-02-14 19:41:00,
2013-02-14 12:46:00,56.5,19.8,30.04,SW,225,1.1,6.3,24,0.00,,,0.00,WUHU216HW,2013-02-14 19:46:00,
2013-02-14 12:51:00,56.5,19.8,30.03,WSW,248,2.5,6.3,24,0.00,,,0.00,WUHU216HW,2013-02-14 19:51:00,
2013-02-14 12:56:00,57.1,20.3,30.03,West,270,6.0,8.1,24,0.00,,,0.00,WUHU216HW,2013-02-14 19:56:00,
2013-02-14 13:01:00,57.2,20.3,30.03,WNW,293,2.5,8.1,24,0.00,,,0.00,WUHU216HW,2013-02-14 20:01:00,
2013-02-14 13:06:00,57.4,19.5,30.02,NW,315,1.6,7.4,23,0.00,,,0.00,WUHU216HW,2013-02-14 20:06:00,
2013-02-14 13:11:00,57.2,20.3,30.02,SE,135,0.9,5.4,24,0.00,,,0.00,WUHU216HW,2013-02-14 20:11:00,
2013-02-14 13:16:00,57.8,19.9,30.02,NNW,338,4.5,4.7,23,0.00,,,0.00,WUHU216HW,2013-02-14 20:16:00,
2013-02-14 13:21:00,58.0,20.0,30.02,West,270,0.9,4.7,23,0.00,,,0.00,WUHU216HW,2013-02-14 20:21:00,
2013-02-14 13:26:00,58.3,19.4,30.02,West,270,4.0,6.9,22,0.00,,,0.00,WUHU216HW,2013-02-14 20:26:00,
2013-02-14 13:31:00,58.3,19.4,30.02,NNW,338,1.1,7.6,22,0.00,,,0.00,WUHU216HW,2013-02-14 20:31:00,
2013-02-14 13:36:00,58.3,19.4,30.02,NW,315,4.3,7.6,22,0.00,,,0.00,WUHU216HW,2013-02-14 20:36:00,
2013-02-14 13:41:00,58.5,19.5,30.02,WSW,248,4.7,5.4,22,0.00,,,0.00,WUHU216HW,2013-02-14 20:41:00,
2013-02-14 13:46:00,59.0,20.9,30.01,SSW,203,7.8,7.8,23,0.00,,,0.00,WUHU216HW,2013-02-14 20:46:00,
2013-02-14 13:51:00,59.6,20.4,30.01,WSW,248,3.4,7.8,22,0.00,,,0.00,WUHU216HW,2013-02-14 20:51:00,
2013-02-14 13:56:00,59.8,20.6,30.01,SSW,203,1.8,7.8,22,0.00,,,0.00,WUHU216HW,2013-02-14 20:56:00,
2013-02-14 14:01:00,59.9,19.8,30.01,NW,315,2.0,6.7,21,0.00,,,0.00,WUHU216HW,2013-02-14 21:01:00,
2013-02-14 14:06:00,59.9,20.7,30.01,NW,315,2.5,6.5,22,0.00,,,0.00,WUHU216HW,2013-02-14 21:06:00,
2013-02-14 14:11:00,60.5,20.3,30.01,SW,225,7.6,8.5,21,0.00,,,0.00,WUHU216HW,2013-02-14 21:11:00,
2013-02-14 14:16:00,60.7,20.4,30.02,West,270,5.4,8.5,21,0.00,,,0.00,WUHU216HW,2013-02-14 21:16:00,
2013-02-14 14:21:00,60.7,20.4,30.02,SW,225,8.5,11.9,21,0.00,,,0.00,WUHU216HW,2013-02-14 21:21:00,
2013-02-14 14:26:00,60.8,20.6,30.01,SW,225,3.4,11.9,21,0.00,,,0.00,WUHU216HW,2013-02-14 21:26:00,
2013-02-14 14:31:00,60.8,20.6,30.01,West,270,7.6,11.4,21,0.00,,,0.00,WUHU216HW,2013-02-14 21:31:00,
2013-02-14 14:36:00,60.7,20.4,30.01,NNW,338,4.0,11.4,21,0.00,,,0.00,WUHU216HW,2013-02-14 21:36:00,
2013-02-14 14:41:00,60.7,20.4,30.01,NW,315,3.4,7.4,21,0.00,,,0.00,WUHU216HW,2013-02-14 21:41:00,
2013-02-14 14:46:00,60.8,20.6,30.00,NW,315,3.4,5.1,21,0.00,,,0.00,WUHU216HW,2013-02-14 21:46:00,
2013-02-14 14:51:00,60.8,20.6,30.00,WSW,248,4.0,6.3,21,0.00,,,0.00,WUHU216HW,2013-02-14 21:51:00,
2013-02-14 14:56:00,60.7,20.4,30.00,NNW,338,1.8,7.6,21,0.00,,,0.00,WUHU216HW,2013-02-14 21:56:00,
2013-02-14 15:01:00,60.8,20.6,30.00,West,270,4.0,7.6,21,0.00,,,0.00,WUHU216HW,2013-02-14 22:01:00,
2013-02-14 15:06:00,61.0,20.7,29.99,West,270,3.1,6.5,21,0.00,,,0.00,WUHU216HW,2013-02-14 22:06:00,
2013-02-14 15:11:00,61.6,21.2,29.99,West,270,2.5,6.5,21,0.00,,,0.00,WUHU216HW,2013-02-14 22:11:00,
2013-02-14 15:16:00,61.6,21.2,29.98,NNW,338,6.7,6.7,21,0.00,,,0.00,WUHU216HW,2013-02-14 22:16:00,
2013-02-14 15:21:00,61.2,20.9,29.98,NNW,338,1.3,7.8,21,0.00,,,0.00,WUHU216HW,2013-02-14 22:21:00,
2013-02-14 15:26:00,61.4,21.0,29.99,NNW,338,5.6,7.8,21,0.00,,,0.00,WUHU216HW,2013-02-14 22:26:00,
2013-02-14 15:31:00,61.6,21.2,29.99,NNW,338,2.7,6.3,21,0.00,,,0.00,WUHU216HW,2013-02-14 22:31:00,
2013-02-14 15:36:00,61.6,21.2,29.98,NNE,23,1.1,6.3,21,0.00,,,0.00,WUHU216HW,2013-02-14 22:36:00,
2013-02-14 15:41:00,61.6,21.2,29.98,NW,315,2.5,5.6,21,0.00,,,0.00,WUHU216HW,2013-02-14 22:41:00,
2013-02-14 15:46:00,61.7,18.8,29.98,WNW,293,5.4,7.2,19,0.00,,,0.00,WUHU216HW,2013-02-14 22:46:00,
2013-02-14 15:51:00,61.6,18.6,29.98,NW,315,3.1,7.2,19,0.00,,,0.00,WUHU216HW,2013-02-14 22:51:00,
2013-02-14 15:56:00,61.6,18.6,29.97,WNW,293,3.8,6.3,19,0.00,,,0.00,WUHU216HW,2013-02-14 22:56:00,
2013-02-14 16:01:00,61.6,18.6,29.97,South,180,2.5,6.3,19,0.00,,,0.00,WUHU216HW,2013-02-14 23:01:00,
2013-02-14 16:06:00,61.9,21.4,29.97,SW,225,3.6,4.5,21,0.00,,,0.00,WUHU216HW,2013-02-14 23:06:00,
2013-02-14 16:11:00,61.9,21.4,29.97,NW,315,2.9,4.0,21,0.00,,,0.00,WUHU216HW,2013-02-14 23:11:00,
2013-02-14 16:16:00,62.1,19.1,29.97,NNW,338,3.6,6.9,19,0.00,,,0.00,WUHU216HW,2013-02-14 23:16:00,
2013-02-14 16:21:00,62.1,19.1,29.97,NNW,338,2.5,6.9,19,0.00,,,0.00,WUHU216HW,2013-02-14 23:21:00,
2013-02-14 16:26:00,61.9,18.9,29.98,SW,225,3.8,9.4,19,0.00,,,0.00,WUHU216HW,2013-02-14 23:26:00,
2013-02-14 16:31:00,61.9,18.9,29.97,NNW,338,2.2,9.4,19,0.00,,,0.00,WUHU216HW,2013-02-14 23:31:00,
2013-02-14 16:36:00,62.1,19.1,29.97,West,270,3.6,6.5,19,0.00,,,0.00,WUHU216HW,2013-02-14 23:36:00,
2013-02-14 16:41:00,61.9,17.4,29.97,WSW,248,6.0,7.6,18,0.00,,,0.00,WUHU216HW,2013-02-14 23:41:00,
2013-02-14 16:46:00,61.7,17.2,29.97,WNW,293,5.8,8.1,18,0.00,,,0.00,WUHU216HW,2013-02-14 23:46:00,
2013-02-14 16:51:00,61.6,17.1,29.98,NW,315,6.5,8.1,18,0.00,,,0.00,WUHU216HW,2013-02-14 23:51:00,
2013-02-14 16:56:00,61.2,16.7,29.98,West,270,4.0,7.2,18,0.00,,,0.00,WUHU216HW,2013-02-14 23:56:00,
2013-02-14 17:01:00,61.0,16.7,29.98,West,270,6.3,7.6,18,0.00,,,0.00,WUHU216HW,2013-02-15 00:01:00,
2013-02-14 17:06:00,60.8,16.5,29.98,NNW,338,4.7,7.6,18,0.00,,,0.00,WUHU216HW,2013-02-15 00:06:00,
2013-02-14 17:11:00,60.7,16.3,29.99,NW,315,4.7,6.3,18,0.00,,,0.00,WUHU216HW,2013-02-15 00:11:00,
2013-02-14 17:16:00,60.3,16.0,29.99,NNW,338,4.0,5.4,18,0.00,,,0.00,WUHU216HW,2013-02-15 00:16:00,
2013-02-14 17:21:00,59.9,15.7,29.99,NW,315,5.4,7.6,18,0.00,,,0.00,WUHU216HW,2013-02-15 00:21:00,
2013-02-14 17:26:00,59.8,17.1,29.99,NW,315,2.9,7.6,19,0.00,,,0.00,WUHU216HW,2013-02-15 00:26:00,
2013-02-14 17:31:00,59.6,16.9,29.99,North,0,2.0,5.6,19,0.00,,,0.00,WUHU216HW,2013-02-15 00:31:00,
2013-02-14 17:36:00,59.2,16.7,29.99,NNW,338,4.3,4.5,19,0.00,,,0.00,WUHU216HW,2013-02-15 00:36:00,
2013-02-14 17:41:00,59.0,15.0,29.99,WNW,293,3.4,4.9,18,0.00,,,0.00,WUHU216HW,2013-02-15 00:41:00,
2013-02-14 17:46:00,58.7,14.6,29.99,WNW,293,2.7,4.9,18,0.00,,,0.00,WUHU216HW,2013-02-15 00:46:00,
2013-02-14 17:51:00,58.3,14.3,30.00,NW,315,2.7,4.7,18,0.00,,,0.00,WUHU216HW,2013-02-15 00:51:00,
2013-02-14 17:56:00,58.0,15.6,30.00,NW,315,2.2,4.7,19,0.00,,,0.00,WUHU216HW,2013-02-15 00:56:00,
2013-02-14 18:01:00,57.6,16.8,30.00,NW,315,1.6,3.8,20,0.00,,,0.00,WUHU216HW,2013-02-15 01:01:00,
2013-02-14 18:06:00,57.2,16.6,30.00,NW,315,1.8,2.5,20,0.00,,,0.00,WUHU216HW,2013-02-15 01:06:00,
2013-02-14 18:11:00,56.7,16.1,30.00,WNW,293,1.6,2.0,20,0.00,,,0.00,WUHU216HW,2013-02-15 01:11:00,
2013-02-14 18:16:00,56.2,15.7,30.01,West,270,1.1,2.5,20,0.00,,,0.00,WUHU216HW,2013-02-15 01:16:00,
2013-02-14 18:21:00,55.6,15.3,30.01,West,270,0.9,2.5,20,0.00,,,0.00,WUHU216HW,2013-02-15 01:21:00,
2013-02-14 18:26:00,55.1,14.8,30.01,WSW,248,1.1,2.5,20,0.00,,,0.00,WUHU216HW,2013-02-15 01:26:00,
2013-02-14 18:31:00,54.7,15.4,30.01,WSW,248,1.1,2.0,21,0.00,,,0.00,WUHU216HW,2013-02-15 01:31:00,
2013-02-14 18:36:00,54.4,15.1,30.01,SW,225,1.1,2.0,21,0.00,,,0.00,WUHU216HW,2013-02-15 01:36:00,
2013-02-14 18:41:00,54.0,14.8,30.01,SW,225,1.1,1.6,21,0.00,,,0.00,WUHU216HW,2013-02-15 01:41:00,
2013-02-14 18:46:00,53.5,14.3,30.01,SW,225,1.1,1.6,21,0.00,,,0.00,WUHU216HW,2013-02-15 01:46:00,
2013-02-14 18:51:00,53.1,14.9,30.02,SW,225,1.1,1.6,22,0.00,,,0.00,WUHU216HW,2013-02-15 01:51:00,
2013-02-14 18:56:00,52.9,14.9,30.02,SW,225,1.1,1.6,22,0.00,,,0.00,WUHU216HW,2013-02-15 01:56:00,
2013-02-14 19:01:00,52.6,14.5,30.02,SW,225,0.9,1.6,22,0.00,,,0.00,WUHU216HW,2013-02-15 02:01:00,
2013-02-14 19:06:00,52.2,14.2,30.02,SW,225,1.1,1.8,22,0.00,,,0.00,WUHU216HW,2013-02-15 02:06:00,
2013-02-14 19:11:00,51.8,14.0,30.02,SW,225,1.1,1.8,22,0.00,,,0.00,WUHU216HW,2013-02-15 02:11:00,
2013-02-14 19:16:00,51.5,13.7,30.02,SW,225,1.3,1.8,22,0.00,,,0.00,WUHU216HW,2013-02-15 02:16:00,
2013-02-14 19:21:00,51.3,14.4,30.02,NNE,23,0.7,1.8,23,0.00,,,0.00,WUHU216HW,2013-02-15 02:21:00,
2013-02-14 19:26:00,51.1,14.3,30.02,NNE,23,0.0,1.3,23,0.00,,,0.00,WUHU216HW,2013-02-15 02:26:00,
2013-02-14 19:31:00,50.8,14.0,30.02,NNE,23,0.0,1.1,23,0.00,,,0.00,WUHU216HW,2013-02-15 02:31:00,
2013-02-14 19:36:00,50.2,14.4,30.02,NNW,338,0.0,3.1,24,0.00,,,0.00,WUHU216HW,2013-02-15 02:36:00,
2013-02-14 19:41:00,49.9,14.1,30.02,NW,315,0.0,3.1,24,0.00,,,0.00,WUHU216HW,2013-02-15 02:41:00,
2013-02-14 19:46:00,49.5,13.9,30.02,WSW,248,0.7,1.3,24,0.00,,,0.00,WUHU216HW,2013-02-15 02:46:00,
2013-02-14 19:51:00,49.1,13.5,30.02,SW,225,1.6,1.8,24,0.00,,,0.00,WUHU216HW,2013-02-15 02:51:00,
2013-02-14 19:56:00,48.6,13.1,30.02,SW,225,1.6,1.8,24,0.00,,,0.00,WUHU216HW,2013-02-15 02:56:00,
2013-02-14 20:01:00,47.9,12.4,30.02,SW,225,1.1,1.8,24,0.00,,,0.00,WUHU216HW,2013-02-15 03:01:00,
2013-02-14 20:06:00,47.5,13.1,30.02,SW,225,2.2,2.5,25,0.00,,,0.00,WUHU216HW,2013-02-15 03:06:00,
2013-02-14 20:11:00,47.2,12.8,30.03,SW,225,1.1,2.5,25,0.00,,,0.00,WUHU216HW,2013-02-15 03:11:00,
2013-02-14 20:16:00,47.0,12.6,30.03,SW,225,1.1,2.5,25,0.00,,,0.00,WUHU216HW,2013-02-15 03:16:00,
2013-02-14 20:21:00,46.8,12.4,30.02,SW,225,1.1,1.8,25,0.00,,,0.00,WUHU216HW,2013-02-15 03:21:00,
2013-02-14 20:26:00,46.6,12.3,30.03,SW,225,2.0,2.5,25,0.00,,,0.00,WUHU216HW,2013-02-15 03:26:00,
2013-02-14 20:31:00,46.4,13.1,30.03,SW,225,1.6,2.5,26,0.00,,,0.00,WUHU216HW,2013-02-15 03:31:00,
2013-02-14 20:36:00,46.3,13.9,30.03,SW,225,1.1,2.5,27,0.00,,,0.00,WUHU216HW,2013-02-15 03:36:00,
2013-02-14 20:41:00,46.1,13.7,30.03,SW,225,1.1,1.6,27,0.00,,,0.00,WUHU216HW,2013-02-15 03:41:00,
2013-02-14 20:46:00,45.9,13.5,30.04,SW,225,1.6,1.6,27,0.00,,,0.00,WUHU216HW,2013-02-15 03:46:00,
2013-02-14 20:51:00,45.7,13.3,30.04,SW,225,2.0,2.2,27,0.00,,,0.00,WUHU216HW,2013-02-15 03:51:00,
2013-02-14 20:56:00,45.5,13.2,30.04,SW,225,1.1,2.2,27,0.00,,,0.00,WUHU216HW,2013-02-15 03:56:00,
2013-02-14 21:01:00,45.4,14.0,30.04,SW,225,1.1,2.0,28,0.00,,,0.00,WUHU216HW,2013-02-15 04:01:00,
2013-02-14 21:06:00,45.2,13.8,30.04,SW,225,1.6,1.8,28,0.00,,,0.00,WUHU216HW,2013-02-15 04:06:00,
2013-02-14 21:11:00,45.0,13.7,30.05,SW,225,1.1,1.8,28,0.00,,,0.00,WUHU216HW,2013-02-15 04:11:00,
2013-02-14 21:16:00,45.0,13.7,30.05,NNE,23,1.1,2.7,28,0.00,,,0.00,WUHU216HW,2013-02-15 04:16:00,
2013-02-14 21:21:00,44.8,13.5,30.05,ENE,68,0.7,2.7,28,0.00,,,0.00,WUHU216HW,2013-02-15 04:21:00,
2013-02-14 21:26:00,44.5,13.1,30.05,ESE,113,0.4,1.6,28,0.00,,,0.00,WUHU216HW,2013-02-15 04:26:00,
2013-02-14 21:31:00,44.1,12.9,30.05,ESE,113,0.4,1.1,28,0.00,,,0.00,WUHU216HW,2013-02-15 04:31:00,
2013-02-14 21:36:00,43.7,13.4,30.05,ESE,113,0.0,0.9,29,0.00,,,0.00,WUHU216HW,2013-02-15 04:36:00,
2013-02-14 21:41:00,43.4,13.1,30.05,ESE,113,0.4,0.9,29,0.00,,,0.00,WUHU216HW,2013-02-15 04:41:00,
2013-02-14 21:46:00,43.0,12.8,30.06,ESE,113,0.4,0.9,29,0.00,,,0.00,WUHU216HW,2013-02-15 04:46:00,
2013-02-14 21:51:00,42.7,12.4,30.06,SW,225,1.1,1.1,29,0.00,,,0.00,WUHU216HW,2013-02-15 04:51:00,
2013-02-14 21:56:00,42.5,12.3,30.07,SW,225,0.7,1.6,29,0.00,,,0.00,WUHU216HW,2013-02-15 04:56:00,
2013-02-14 22:00:00,42.3,12.2,30.07,SW,225,0.9,1.6,29,0.00,,,0.00,WUHU216HW,2013-02-15 05:00:00,
2013-02-14 22:05:00,42.1,12.1,30.07,SW,225,0.0,1.1,29,0.00,,,0.00,WUHU216HW,2013-02-15 05:05:00,
2013-02-14 22:10:00,41.9,11.9,30.07,SW,225,0.0,0.4,29,0.00,,,0.00,WUHU216HW,2013-02-15 05:10:00,
2013-02-14 22:15:00,41.8,12.6,30.08,SW,225,0.4,0.4,30,0.00,,,0.00,WUHU216HW,2013-02-15 05:15:00,
2013-02-14 22:20:00,41.6,12.5,30.08,SW,225,0.0,0.4,30,0.00,,,0.00,WUHU216HW,2013-02-15 05:20:00,
2013-02-14 22:25:00,41.2,12.3,30.08,WSW,248,2.5,2.5,30,0.00,,,0.00,WUHU216HW,2013-02-15 05:25:00,
2013-02-14 22:30:00,40.7,11.7,30.07,WSW,248,1.8,2.9,30,0.00,,,0.00,WUHU216HW,2013-02-15 05:30:00,
2013-02-14 22:35:00,40.7,12.4,30.08,WSW,248,2.0,2.9,31,0.00,,,0.00,WUHU216HW,2013-02-15 05:35:00,
2013-02-14 22:40:00,40.7,12.4,30.08,SW,225,1.1,2.7,31,0.00,,,0.00,WUHU216HW,2013-02-15 05:40:00,
2013-02-14 22:45:00,40.7,12.4,30.08,SW,225,1.8,2.0,31,0.00,,,0.00,WUHU216HW,2013-02-15 05:45:00,
2013-02-14 22:50:00,40.3,12.1,30.08,SW,225,1.1,1.8,31,0.00,,,0.00,WUHU216HW,2013-02-15 05:50:00,
2013-02-14 22:55:00,40.3,12.1,30.08,SW,225,0.4,1.8,31,0.00,,,0.00,WUHU216HW,2013-02-15 05:55:00,
2013-02-14 23:00:00,40.3,12.1,30.09,SW,225,0.7,1.3,31,0.00,,,0.00,WUHU216HW,2013-02-15 06:00:00,
2013-02-14 23:05:00,40.1,11.9,30.08,SW,225,1.8,1.8,31,0.00,,,0.00,WUHU216HW,2013-02-15 06:05:00,
2013-02-14 23:10:00,40.0,11.7,30.08,SW,225,1.3,2.0,31,0.00,,,0.00,WUHU216HW,2013-02-15 06:10:00,
2013-02-14 23:15:00,40.0,11.7,30.08,SW,225,0.4,2.0,31,0.00,,,0.00,WUHU216HW,2013-02-15 06:15:00,
2013-02-14 23:20:00,39.8,12.3,30.08,SSW,203,1.1,1.3,32,0.00,,,0.00,WUHU216HW,2013-02-15 06:20:00,
2013-02-14 23:25:00,39.6,12.1,30.09,SSW,203,0.4,1.1,32,0.00,,,0.00,WUHU216HW,2013-02-15 06:25:00,
2013-02-14 23:30:00,39.4,11.9,30.09,ESE,113,0.0,1.1,32,0.00,,,0.00,WUHU216HW,2013-02-15 06:30:00,
2013-02-14 23:35:00,39.4,11.9,30.09,ESE,113,0.0,0.9,32,0.00,,,0.00,WUHU216HW,2013-02-15 06:35:00,
2013-02-14 23:40:00,39.2,11.7,30.09,ESE,113,0.0,0.9,32,0.00,,,0.00,WUHU216HW,2013-02-15 06:40:00,
2013-02-14 23:45:00,39.1,11.6,30.09,ESE,113,0.0,0.0,32,0.00,,,0.00,WUHU216HW,2013-02-15 06:45:00,
2013-02-14 23:50:00,38.5,11.7,30.09,ESE,113,0.0,0.0,33,0.00,,,0.00,WUHU216HW,2013-02-15 06:50:00,
2013-02-14 23:55:00,38.3,11.6,30.10,SW,225,0.2,0.9,33,0.00,,,0.00,WUHU216HW,2013-02-15 06:55:00,